Date String (YYYY-MM-DD hh:mm:ss) UTC,Instrument flags,Ambient pressure (hPa),Sample flow (lpm),Bypass flow (lpm),Sample temperature (°C),Ambient temperature (°C),ASC tube jacket temperature (°C),LED temperature (°C),Box temperature (°C),Sample RH (%),Span deviation,Mass concentration (μg/m³),Mass concentration (μg/m³),Mass concentration (μg/m³)
DateTimeUTC,F1_M11,P_M11,Q1_M11,Q2_M11,T1_M11,T2_M11,T3_M11,T4_M11,T5_M11,U1_M11,ZSPAN_M11,X0_M11,X2_M11,X1_M11
2022-03-05 19:00:00,,0819.1,5.00,0.00,22.8,22.2,00.0,31.8,24.5,12.3,0000.0,0004.16,0003.30,0003.07
2022-03-05 19:01:00,,0819.1,4.99,0.00,22.8,22.1,00.0,31.8,24.5,12.3,0000.0,0004.14,0003.31,0003.11
2022-03-05 19:02:00,,0819.1,5.00,0.00,22.8,22.1,00.0,31.8,24.5,12.4,0000.0,0004.18,0003.34,0003.13
2022-03-05 19:03:00,,0819.0,5.00,0.00,22.8,22.1,00.0,31.8,24.5,12.4,0000.0,0004.21,0003.35,0003.14
2022-03-05 19:04:00,,0819.0,5.01,0.00,22.8,22.1,00.0,31.8,24.5,12.6,0000.0,0004.19,0003.35,0003.14
2022-03-05 19:05:00,,0819.0,5.01,0.00,22.7,22.0,00.0,31.8,24.5,12.5,0000.0,0004.37,0003.38,0003.15
2022-03-05 19:06:00,,0818.9,5.00,0.00,22.7,22.0,00.0,31.8,24.4,12.4,0000.0,0004.35,0003.38,0003.16
2022-03-05 19:07:00,,0818.9,5.00,0.00,22.7,22.0,00.0,31.8,24.4,12.3,0000.0,0004.33,0003.37,0003.16
2022-03-05 19:08:00,,0818.9,5.00,0.00,22.7,22.0,00.0,31.8,24.4,12.4,0000.0,0004.31,0003.37,0003.17
2022-03-05 19:09:00,,0819.0,5.00,0.00,22.7,22.0,00.0,31.7,24.4,12.3,0000.0,0004.34,0003.38,0003.17
2022-03-05 19:10:00,,0819.0,5.01,0.00,22.7,22.0,00.0,31.7,24.4,12.4,0000.0,0004.20,0003.34,0003.17
2022-03-05 19:11:00,,0819.1,4.99,0.00,22.7,21.9,00.0,31.7,24.4,12.3,0000.0,0004.18,0003.32,0003.15
2022-03-05 19:12:00,,0819.1,4.99,0.00,22.7,21.9,00.0,31.7,24.4,12.5,0000.0,0004.23,0003.33,0003.14
2022-03-05 19:13:00,,0819.1,5.01,0.00,22.7,21.9,00.0,31.7,24.4,12.5,0000.0,0004.27,0003.32,0003.13
2022-03-05 19:14:00,,0819.1,4.99,0.00,22.7,21.9,00.0,31.7,24.4,12.2,0000.0,0004.18,0003.29,0003.10
2022-03-05 19:15:00,,0819.0,4.99,0.00,22.7,21.9,00.0,31.7,24.4,12.2,0000.0,0004.14,0003.26,0003.06
2022-03-05 19:16:00,,0819.0,4.99,0.00,22.6,21.9,00.0,31.7,24.4,12.2,0000.0,0003.96,0003.22,0003.02
2022-03-05 19:17:00,,0819.0,5.00,0.00,22.6,21.9,00.0,31.7,24.4,12.6,0000.0,0003.83,0003.19,0003.01
2022-03-05 19:18:00,,0819.1,5.00,0.00,22.6,21.9,00.0,31.7,24.4,12.8,0000.0,0003.78,0003.18,0003.00
2022-03-05 19:19:00,,0819.1,4.99,0.00,22.6,21.9,00.0,31.7,24.4,12.8,0000.0,0005.19,0003.18,0002.99
2022-03-05 19:20:00,,0819.1,5.01,0.00,22.6,21.9,00.0,31.7,24.3,12.8,0000.0,0005.36,0003.17,0003.00
2022-03-05 19:21:00,,0819.0,5.00,0.00,22.6,21.9,00.0,31.6,24.3,12.7,0000.0,0005.93,0003.20,0003.01
2022-03-05 19:22:00,,0819.0,5.00,0.00,22.6,21.8,00.0,31.6,24.3,12.5,0000.0,0006.64,0003.23,0003.04
2022-03-05 19:23:00,,0819.1,4.99,0.00,22.6,21.8,00.0,31.6,24.3,12.4,0000.0,0006.73,0003.26,0003.08
2022-03-05 19:24:00,,0819.1,4.99,0.00,22.6,21.8,00.0,31.6,24.3,12.6,0000.0,0006.83,0003.29,0003.11
2022-03-05 19:25:00,,0819.1,5.02,0.00,22.5,21.8,00.0,31.6,24.3,12.5,0000.0,0007.33,0003.32,0003.13
2022-03-05 19:26:00,,0819.1,5.00,0.00,22.6,22.1,00.0,31.6,24.3,12.4,0000.0,0007.56,0003.35,0003.15
2022-03-05 19:27:00,,0819.1,4.98,0.00,22.7,22.7,00.0,31.7,24.6,12.5,0000.0,0007.63,0003.39,0003.19
2022-03-05 19:28:00,,0819.2,5.01,0.00,22.8,23.3,00.0,31.7,24.8,12.6,0000.0,0007.79,0003.47,0003.22
2022-03-05 19:29:00,,0819.2,5.00,0.00,22.9,23.1,00.0,31.7,24.9,12.7,0000.0,0007.87,0003.50,0003.24
2022-03-05 19:30:00,,0819.1,5.00,0.00,22.9,23.0,00.0,31.7,24.9,12.6,0000.0,0006.88,0003.52,0003.26
2022-03-05 19:31:00,,0819.1,4.99,0.00,22.9,22.9,00.0,31.7,24.8,12.6,0000.0,0006.93,0003.56,0003.27
2022-03-05 19:32:00,,0819.1,5.00,0.00,22.9,22.7,00.0,31.7,24.8,12.7,0000.0,0006.60,0003.57,0003.28
2022-03-05 19:33:00,,0819.1,5.00,0.00,22.9,22.6,00.0,31.8,24.7,12.6,0000.0,0006.03,0003.58,0003.29
2022-03-05 19:34:00,,0819.1,5.00,0.00,22.9,22.5,00.0,31.8,24.7,12.5,0000.0,0005.95,0003.57,0003.31
2022-03-05 19:35:00,,0819.1,5.02,0.00,22.9,22.4,00.0,31.8,24.6,12.5,0000.0,0005.90,0003.58,0003.33
2022-03-05 19:36:00,,0819.1,5.00,0.00,22.9,22.4,00.0,31.8,24.6,12.5,0000.0,0005.43,0003.61,0003.36
2022-03-05 19:37:00,,0819.3,5.00,0.00,22.8,22.3,00.0,31.8,24.6,12.7,0000.0,0005.27,0003.64,0003.40
2022-03-05 19:38:00,,0819.3,5.00,0.00,22.8,22.3,00.0,31.8,24.6,12.8,0000.0,0005.34,0003.67,0003.43
2022-03-05 19:39:00,,0819.3,4.99,0.00,22.8,22.2,00.0,31.8,24.6,12.9,0000.0,0005.20,0003.68,0003.46
2022-03-05 19:40:00,,0819.2,5.02,0.00,22.8,22.2,00.0,31.8,24.6,12.6,0000.0,0005.33,0003.73,0003.50
2022-03-05 19:41:00,,0819.1,4.99,0.00,22.8,22.2,00.0,31.8,24.5,12.6,0000.0,0005.50,0003.80,0003.54
2022-03-05 19:42:00,,0819.2,4.99,0.00,22.8,22.1,00.0,31.8,24.5,12.9,0000.0,0005.64,0003.84,0003.59
2022-03-05 19:43:00,,0819.3,5.01,0.00,22.8,22.1,00.0,31.8,24.5,12.7,0000.0,0006.42,0003.87,0003.63
2022-03-05 19:44:00,,0819.3,4.99,0.00,22.8,22.1,00.0,31.8,24.5,12.4,0000.0,0006.39,0003.91,0003.68
2022-03-05 19:45:00,,0819.2,5.01,0.00,22.7,22.1,00.0,31.8,24.5,12.3,0000.0,0006.46,0003.95,0003.71
2022-03-05 19:46:00,,0819.3,5.00,0.00,22.7,22.0,00.0,31.8,24.5,12.6,0000.0,0006.64,0003.99,0003.73
2022-03-05 19:47:00,,0819.3,5.00,0.00,22.7,22.0,00.0,31.8,24.5,12.9,0000.0,0006.74,0004.02,0003.75
2022-03-05 19:48:00,,0819.2,5.01,0.00,22.7,22.0,00.0,31.8,24.5,12.7,0000.0,0006.74,0004.02,0003.76
2022-03-05 19:49:00,,0819.2,5.00,0.00,22.7,22.0,00.0,31.7,24.5,12.4,0000.0,0006.84,0004.05,0003.76
2022-03-05 19:50:00,,0819.3,5.00,0.00,22.7,22.0,00.0,31.7,24.5,12.2,0000.0,0006.83,0004.05,0003.76
2022-03-05 19:51:00,,0819.3,5.00,0.00,22.7,22.0,00.0,31.7,24.5,12.5,0000.0,0006.76,0004.04,0003.77
2022-03-05 19:52:00,,0819.3,5.00,0.00,22.7,22.0,00.0,31.7,24.5,12.6,0000.0,0006.66,0004.01,0003.76
2022-03-05 19:53:00,,0819.2,5.02,0.00,22.7,22.0,00.0,31.7,24.5,12.7,0000.0,0006.58,0004.00,0003.76
2022-03-05 19:54:00,,0819.3,5.00,0.00,22.7,22.0,00.0,31.7,24.5,12.4,0000.0,0005.72,0004.00,0003.75
2022-03-05 19:55:00,,0819.2,5.00,0.00,22.7,22.0,00.0,31.7,24.5,12.2,0000.0,0005.76,0004.01,0003.76
2022-03-05 19:56:00,,0819.3,5.00,0.00,22.7,22.0,00.0,31.7,24.5,12.3,0000.0,0005.81,0004.01,0003.75
2022-03-05 19:57:00,,0819.2,5.00,0.00,22.7,22.0,00.0,31.7,24.5,12.5,0000.0,0005.72,0004.00,0003.74
2022-03-05 19:58:00,,0819.2,5.00,0.00,22.7,22.0,00.0,31.7,24.5,12.4,0000.0,0005.66,0003.98,0003.74
2022-03-05 19:59:00,,0819.3,5.00,0.00,22.7,21.9,00.0,31.7,24.5,12.5,0000.0,0005.59,0003.96,0003.73
